dimanche 04 mars 2018

Le classement original se trouve sur : http://ultratiming.be
 
HUY’FOR’TRAIL - HUY
DISTANCE : 18.97 km
dimanche 04 mars 2018
 
Place dos NOM Catégorie Pl/cat temps temps/km Vitesse
1 674 THIRY SAMUEL SEH 1 1:31:48 04:50 12.40
2 613 BROSSARD ERIC SEH 2 1:31:54 04:51 12.39
3 538 LENAERTS JEAN-CHRISTOPHE V1H 1 1:33:57 04:57 12.12
4 572 LONCAR FREDDY V1H 2 1:35:03 05:01 11.98
5 679 TRIPNAUX JULIEN SEH 3 1:36:42 05:06 11.77
6 661 SIMONET DENIS SEH 4 1:37:51 05:09 11.63
7 640 RIQUET BENJAMIN SEH 5 1:37:56 05:10 11.62
8 641 ROBA FRANÇOIS SEH 6 1:40:06 05:17 11.37
9 644 ROBERT YVES V1H 3 1:41:49 05:22 11.18
10 412 NURKOVSKI JONATHAN SEH 7 1:42:39 05:25 11.09
11 690 VASSART QUENTIN SEH 8 1:43:44 05:28 10.97
12 598 MICHELIS FRANCOIS SEH 9 1:44:24 05:30 10.90
13 599 MOIRANO RONALD SEH 10 1:45:37 05:34 10.78
14 392 BECK GEOFFREY V1H 4 1:48:05 05:42 10.53
15 418 CHAVANNE BERTRAND V1H 5 1:48:09 05:42 10.53
16 579 LUCAS CHRISTOPHE V1H 6 1:48:42 05:44 10.47
17 509 GILLET EMMANUEL XXX   1:50:15 05:49 10.32
18 666 SIRAULT RUDY V1H 7 1:50:17 05:49 10.32
19 596 MEUNIER VINCENT SEH 11 1:50:17 05:49 10.32
20 651 ROUSSEAU DAVID V1H 8 1:50:22 05:49 10.31
21 663 SIMONS JORG V1H 9 1:50:25 05:49 10.31
22 626 PIRON FRÉDÉRIC V1H 10 1:50:51 05:51 10.27
23 549 KLAUER JONATHAN SEH 12 1:50:57 05:51 10.26
24 657 SERVAIS JOHAN V1H 11 1:50:57 05:51 10.26
25 628 POLIS CHRISTOPHE SEH 13 1:51:03 05:51 10.25
26 512 GOCHEL FRÉDÉRIC SEH 14 1:51:39 05:53 10.20
27 586 MALENGREAUX BENJAMIN SEH 15 1:52:27 05:56 10.12
28 422 CLOUX JEAN-FRANCOIS SEH 16 1:53:11 05:58 10.06
29 424 COLETTE DANIEL V2H 1 1:53:12 05:58 10.06
30 449 DEHIN LUDOVIC SEH 17 1:53:57 06:00 9.99
31 498 FRANCOTTE SEBASTIEN V1H 12 1:54:44 06:03 9.92
32 496 FOURGEAUX SOPHIE SEF 1 1:55:09 06:04 9.89
33 587 MAQUET JORDAN SEH 18 1:55:16 06:05 9.88
34 497 FRAIPONT JEAN-MARC V1H 13 1:55:22 06:05 9.87
35 546 KERSTEN GONTRAN SEH 19 1:56:12 06:07 9.80
36 531 HERBER CEDRIC SEH 20 1:56:39 06:09 9.76
37 635 REMELS ALAIN V2H 2 1:56:50 06:09 9.74
38 510 GILLET JEANFRANÇOIS SEH 21 1:57:52 06:13 9.66
39 615 OLI CRUCHOT HECQ V2H 3 1:57:53 06:13 9.66
40 438 DARGENT STIVE SEH 22 1:57:58 06:13 9.65
41 461 DENIS BRYAN SEH 23 1:58:08 06:14 9.64
42 607 NAVAGRUDSKAS VLADAS V2H 4 1:58:17 06:14 9.62
43 471 DEWIT RAYMOND V1H 14 1:58:32 06:15 9.60
44 472 DIEDEREN STEPHEN SEH 24 1:58:43 06:15 9.59
45 516 GRUSLIN JULES V1H 15 1:58:43 06:15 9.59
46 518 GUSTIN STEVE SEH 25 1:59:31 06:18 9.52
47 515 GRAINDORGE FRÉDÉRIC V1H 16 1:59:54 06:19 9.49
48 458 DELVENNE THIBAUT ESPH 1 2:00:19 06:21 9.46
49 1682 VERHOEVEN POA ESPH 2 2:00:37 06:21 9.44
50 478 DUBOIS GEOFFREY SEH 26 2:01:21 06:24 9.38
51 391 BAUMANS BENOIT V1H 17 2:01:24 06:24 9.38
52 683 VAN LANGEVELD ROGER V3H 1 2:01:31 06:24 9.37
53 682 VAN BROEKHOVEN ERWIN SEH 27 2:01:49 06:25 9.34
54 664 SIMONSE EVA SEF 2 2:02:13 06:27 9.31
55 432 CRAVATTE CHRISTEL SEF 3 2:02:16 06:27 9.31
56 660 SIMONET CHRISTOPHE SEH 28 2:02:33 06:28 9.29
57 429 CORIN DIDIER V1H 18 2:03:16 06:30 9.23
58 427 COLLETTE VINCENT V2H 5 2:03:22 06:30 9.23
59 445 DECLOUX GILLES V1H 19 2:04:04 06:32 9.18
60 493 GIACCHETTA STEPHANE V2H 6 2:04:05 06:32 9.17
61 700 WILMET BENOIT V2H 7 2:04:32 06:34 9.14
62 689 VANKRUNKELSVEN PATRIK V3H 2 2:04:34 06:34 9.14
63 600 MOMMEN KIERAN SEH 29 2:05:41 06:37 9.06
64 389 BASTIN JEAN-LUC V2H 8 2:05:47 06:38 9.05
65 522 HALUT PIERRE SEH 30 2:06:04 06:39 9.03
66 580 LUSSIS BENOIT V1H 20 2:06:10 06:39 9.02
67 673 THILION BENJAMIN SEH 31 2:06:17 06:39 9.01
68 452 DEKROCK PHILIPPE SEH 32 2:06:19 06:39 9.01
69 474 DODEMONT FABIAN V1H 21 2:07:07 06:42 8.95
70 499 FRENNET GUILLAUME SEH 33 2:08:09 06:45 8.88
71 455 DELIRE ALAIN V2H 9 2:08:23 06:46 8.87
72 402 BORTOLOTTI EMMANUEL SEH 34 2:08:24 06:46 8.87
73 595 MEUNIER MARC V1H 22 2:08:31 06:46 8.86
74 527 HAZEE STEPHANE V1H 23 2:08:38 06:47 8.85
75 487 THOMAS XAVIER V1H 24 2:09:05 06:48 8.82
76 634 RASSART BRUNO V2H 10 2:09:09 06:48 8.81
77 799 LIGOT NICOLAS SEH 35 2:09:11 06:49 8.81
78 388 BARON NICOLAS SEH 36 2:09:11 06:49 8.81
79 553 LAFOSSE JONATHAN SEH 37 2:09:12 06:49 8.81
80 436 DAMSIN VINCENT V1H 25 2:09:29 06:49 8.79
81 524 HAOT NICOLAS SEH 38 2:09:38 06:50 8.78
82 561 LECOMTE BENOIT V1H 26 2:09:50 06:51 8.77
83 594 MESTREZ CHARLES V2H 11 2:09:55 06:51 8.76
84 658 SEUTIN GILLES SEH 39 2:10:11 06:52 8.74
85 616 OOSTLAND STÉPHANE V1H 27 2:10:44 06:53 8.71
86 629 PRINSENS GEOFFREY SEH 40 2:11:01 06:54 8.69
87 457 DELVENNE MARC V2H 12 2:11:10 06:55 8.68
88 544 KEMPENEERS LEOPOLD V1H 28 2:11:15 06:55 8.67
89 467 DESSY SÉBASTIEN V1H 29 2:11:38 06:56 8.65
90 588 MARTIN TONY V1H 30 2:11:42 06:57 8.64
91 488 PIRON FABRICE V1H 31 2:11:44 06:57 8.64
92 482 DUMEZ STÉPHANE V1H 32 2:11:47 06:57 8.64
93 503 GAUDIN SYLVAIN SEH 41 2:12:03 06:58 8.62
94 383 ABIUSO UGO V1H 33 2:12:30 06:59 8.59
95 681 VALDES FABIAN V1H 34 2:12:32 06:59 8.59
96 687 VANDEVELD MANUEL V1H 35 2:13:06 07:01 8.55
97 431 CORTEN STÉPHANE V1H 36 2:13:09 07:01 8.55
98 426 COLLARD PASCAL V2H 13 2:14:38 07:06 8.45
99 582 MACHIELS PIERRE V1H 37 2:14:40 07:06 8.45
100 456 DELLOYE QUENTIN SEH 42 2:14:40 07:06 8.45
101 597 MEYLEMANS CHRISTOPHE SEH 43 2:14:50 07:06 8.44
102 528 HEMMER OLIVIER V1H 38 2:14:50 07:06 8.44
103 519 GYEN MICHAËL V1H 39 2:15:02 07:07 8.43
104 555 LAMBERT GUY V2H 14 2:15:09 07:07 8.42
105 646 ROÏ PHILIPPE V2H 15 2:15:11 07:08 8.42
106 591 MATAGNE BENOIT V1H 40 2:15:29 07:08 8.40
107 517 GUILMAIN JÉRÔME V1H 41 2:15:29 07:08 8.40
108 437 DAOUT BERTRAND SEH 44 2:15:31 07:09 8.40
109 477 DRÈZE QUENTIN V1H 42 2:15:38 07:09 8.39
110 637 RENAULT GREGORY V1H 43 2:15:56 07:10 8.37
111 405 BOUR JEAN-PAUL V2H 16 2:15:59 07:10 8.37
112 548 KINET OLIVIER V1H 44 2:16:03 07:10 8.37
113 500 FREYMAN MAXIM SEH 45 2:16:07 07:10 8.36
114 451 DEJARDIN OLIVIER V2H 17 2:16:31 07:12 8.34
115 550 KLEINKENBERG PIERRE V1H 45 2:16:39 07:12 8.33
116 639 RIGA STÉPHANE V2H 18 2:16:42 07:12 8.33
117 653 SACRE MICHAEL V1H 46 2:16:58 07:13 8.31
118 420 CLAES CATHERINE V1F 1 2:17:23 07:14 8.29
119 523 HANQUET YVES V2H 19 2:17:27 07:15 8.28
120 668 BLANCKAERT AXEL V1H 47 2:17:34 07:15 8.27
121 537 JAUMO LAURENT V1H 48 2:17:35 07:15 8.27
122 495 FOSSOUL RAPHAËL SEH 46 2:18:04 07:17 8.24
123 581 LUXEN RÉMI V2H 20 2:18:04 07:17 8.24
124 656 SCHOOFS RICHARD V2H 21 2:18:09 07:17 8.24
125 559 LAURENT FRANÇOIS SEH 47 2:18:26 07:18 8.22
126 473 DOCQUIER DELPHINE SEF 4 2:18:29 07:18 8.22
127 443 DEBOUNY FABIAN SEH 48 2:18:32 07:18 8.22
128 409 BRENE YVES V1H 49 2:18:35 07:18 8.21
129 551 LA COLA GIOACHINO V2H 22 2:19:03 07:20 8.19
130 631 QUITTELIER JASON SEH 49 2:19:14 07:20 8.18
131 605 NARDESE GIANNI V1H 50 2:19:15 07:20 8.17
132 571 LHOEST NICOLAS SEH 50 2:19:42 07:22 8.15
133 612 NOTTEBAERT SAMUEL V1H 51 2:19:48 07:22 8.14
134 627 PIROTTE ARMAND V3H 3 2:19:53 07:22 8.14
135 450 DEJARDIN CHRISTELLE V1F 2 2:19:57 07:23 8.13
136 535 IPERS JAN V2H 23 2:20:01 07:23 8.13
137 617 ORBAN COLINNE SEF 5 2:20:02 07:23 8.13
138 475 DONNEAUX ERIC V1H 52 2:20:13 07:23 8.12
139 574 LIZEN MICHEL V2H 24 2:20:15 07:24 8.12
140 590 MATAGNE ANNE V1F 3 2:21:07 07:26 8.07
141 563 LEGROS PASCAL V2H 25 2:21:07 07:26 8.07
142 513 GODFRAIND CHRISTIAN V2H 26 2:21:23 07:27 8.05
143 454 DELFERIER CORALIE SEF 6 2:21:23 07:27 8.05
144 625 PIRNAY JEAN-FRANÇOIS V2H 27 2:21:25 07:27 8.05
145 511 GOBIN PIERRE SEH 51 2:21:32 07:28 8.04
146 676 TISSOT MATTIEU SEH 52 2:21:47 07:28 8.03
147 620 PERL FREDERIC V1H 53 2:21:47 07:28 8.03
148 506 GERARD ALAIN V1H 54 2:22:08 07:30 8.01
149 411 BROUWIER MICHAEL V1H 55 2:23:01 07:32 7.96
150 483 DUMONT BERNARD V2H 28 2:23:08 07:33 7.95
151 542 KALKMANN FREDERIC V1H 56 2:23:09 07:33 7.95
152 602 MOTTIN BENOIT V3H 4 2:23:21 07:33 7.94
153 638 RIGA DAMIEN SEH 53 2:23:46 07:35 7.92
154 410 BRISBOIS JÉRÉMY SEH 54 2:23:46 07:35 7.92
155 525 HAULOTTE OLIVIER V1H 57 2:24:05 07:36 7.90
156 698 WILLEMS BRUNO V3H 5 2:24:07 07:36 7.90
157 671 SYLVAIN PETIT SEF 7 2:24:11 07:36 7.89
158 440 DATTOLI CARLO V2H 29 2:25:24 07:40 7.83
159 430 CORNET CHRISTOPHE V1H 58 2:25:32 07:40 7.82
160 414 CARRARO VINCENT SEH 55 2:25:39 07:41 7.82
161 632 RAHMOUN NOUR XXX   2:25:45 07:41 7.81
162 481 DUCHESNE LAURIE SEF 8 2:26:18 07:43 7.78
163 554 LALOUX HÉLÈNE SEF 9 2:27:26 07:46 7.72
164 558 LAURENT DAVID SEH 56 2:27:27 07:46 7.72
165 490 FANIELLE OLIVIER SEH 57 2:27:31 07:47 7.72
166 502 GARIBALDI ANGELO V1H 59 2:28:05 07:48 7.69
167 413 CARABIN PATRICE V1H 60 2:28:07 07:48 7.69
168 459 DEMOULIN JEAN-MICHEL V1H 61 2:28:08 07:48 7.68
169 564 LEJEUNE DELPHINE V1F 4 2:28:08 07:48 7.68
170 399 BIEMAR DENIS SEH 58 2:28:29 07:50 7.67
171 697 VRANKENNE CHRISTOPHE V1H 62 2:28:37 07:50 7.66
172 444 DECLÈVE BENOÎT SEH 59 2:28:40 07:50 7.66
173 650 RONDIAT JEAN-FRANCOIS SEF 10 2:30:04 07:55 7.59
174 624 PIRE ARNAUD SEH 60 2:30:37 07:56 7.56
175 464 DEPIREUX NATHALIE V1F 5 2:30:37 07:56 7.56
176 693 VIJVERMAN CHRISTOPHE SEH 61 2:30:37 07:56 7.56
177 393 BELAIRE MICHAEL SEH 62 2:30:39 07:56 7.56
178 480 DUCHESNE ERIC V2H 30 2:31:07 07:58 7.53
179 675 THONON OLIVIER V1H 63 2:31:46 08:00 7.50
180 504 GENICOT PASCAL V2H 31 2:32:10 08:01 7.48
181 694 VILERS HAROLD V1H 64 2:32:14 08:01 7.48
182 589 MASSON VINCENT V1H 65 2:32:21 08:02 7.47
183 485 DURELLO VALÉRIE SEF 11 2:32:24 08:02 7.47
184 386 BAILLY CORALINE SEF 12 2:33:21 08:05 7.42
185 435 DALL'OCA BENJAMIN SEH 63 2:33:48 08:06 7.40
186 691 VAST FRÉDÉRIC SEH 64 2:34:19 08:08 7.38
187 520 HAGELSTEIN SIMON SEH 65 2:34:19 08:08 7.38
188 609 NEUVILLE NATHALIE V2F 1 2:34:44 08:09 7.36
189 686 VANDENSAVEL MANON SEF 13 2:34:50 08:10 7.35
190 428 CONINGS PATRICK V3H 6 2:35:24 08:11 7.33
191 642 ROBERT DOROTHY V1F 6 2:35:39 08:12 7.31
192 568 LESCEUX AUDREY SEF 14 2:35:44 08:13 7.31
193 533 HUSSON MÉLANIE SEF 15 2:35:48 08:13 7.31
194 630 QUINTIN JEAN-JACQUES V2H 32 2:36:05 08:14 7.29
195 462 DENIS VINCENT SEH 66 2:36:15 08:14 7.29
196 622 PIRARD XAVIER SEH 67 2:36:17 08:14 7.28
197 434 CRUQUENAIRE ALEXANDRE V1H 66 2:36:20 08:14 7.28
198 466 DEQUINZE VIRGINIE V1F 7 2:36:43 08:16 7.26
199 652 RUOSO MICHAEL V1H 67 2:36:50 08:16 7.26
200 514 GONZALEZ VINCENT V1H 68 2:37:11 08:17 7.24
201 648 ROMAIN VALÉRIE V1F 8 2:37:48 08:19 7.21
202 465 DEPREZ HERVÉ V2H 33 2:39:03 08:23 7.16
203 556 LAMBRECHTS PATRICIA V1F 9 2:39:04 08:23 7.16
204 469 DEVRESSE SIMON SEH 68 2:39:05 08:23 7.16
205 468 DETAILLE FRANCE SEF 16 2:39:06 08:23 7.15
206 408 BRAFFORT FABRICE V1H 69 2:39:14 08:24 7.15
207 800 DAROT STÉPHANE SEH 69 2:40:31 08:28 7.09
208 618 PEIFFER NICOLAS SEH 70 2:40:35 08:28 7.09
209 543 KANYIKI CARLOS V1H 70 2:40:36 08:28 7.09
210 492 FINOULST MARLEEN V2F 2 2:41:40 08:31 7.04
211 547 KINET GARY SEH 71 2:41:43 08:31 7.04
212 677 TIXHON JÉRÉMIE SEH 72 2:41:43 08:31 7.04
213 702 ZUCCARINI ENZO SEH 73 2:41:44 08:31 7.04
214 398 BERTRAND FABRICE V1H 71 2:41:44 08:31 7.04
215 578 LOUIS PIERRE V1H 72 2:41:45 08:32 7.04
216 619 PEREE GERALDINE V1F 10 2:41:50 08:32 7.03
217 396 BERTRAND ANNE V2F 3 2:41:50 08:32 7.03
218 508 GILLARD POLO V2H 34 2:42:29 08:34 7.01
219 387 BARBÉ DELPHINE SEF 17 2:42:54 08:35 6.99
220 606 HOUTHOOFDT NATHALIE V1F 11 2:42:55 08:35 6.99
221 611 NOIRHOMME MARC V2H 35 2:43:09 08:36 6.98
222 570 LHOAS FANFAN V2F 4 2:43:09 08:36 6.98
223 649 ROMBOUTS DIRK V2H 36 2:43:18 08:36 6.97
224 529 HENRARD VINCENT V1H 73 2:43:39 08:38 6.96
225 654 SACRÉ BERNARD SEH 74 2:46:27 08:46 6.84
226 603 MOUREAU RAPHAËL V1H 74 2:46:34 08:47 6.83
227 541 JORDANT BENOIT V2H 37 2:47:14 08:49 6.81
228 684 VAN LIMBERGEN INGRID SEF 18 2:47:32 08:50 6.79
229 415 CATOUL GERALD V1H 75 2:47:34 08:50 6.79
230 645 ROCOUR SANDRINE V1F 12 2:48:18 08:52 6.76
231 448 DEGOTTE BENOIT V1H 76 2:48:18 08:52 6.76
232 608 NEERINCK GENEVIEVE V1F 13 2:50:35 08:59 6.67
233 470 DEWAELE CHRISTEL V1F 14 2:50:39 09:00 6.67
234 400 BINAME PIERRE SEH 75 2:50:39 09:00 6.67
235 476 DORMAL STEPHANE V1H 77 2:50:46 09:00 6.67
236 665 SIQUET PASCALE V2F 5 2:50:50 09:00 6.66
237 633 RAMAEKERS ISABELLE V2F 6 2:50:51 09:00 6.66
238 562 LEGROS FREDERIC V1H 78 2:51:11 09:01 6.65
239 614 OHN VÉRONIQUE V1F 15 2:51:11 09:01 6.65
240 530 HENSGENS JAN V3H 7 2:52:59 09:07 6.58
241 486 ÉBROIN ISABELLE V1F 16 2:53:24 09:08 6.56
242 406 BOURGUET PIERRE V2H 38 2:53:24 09:08 6.56
243 540 JOIRET YVAN V3H 8 2:53:26 09:08 6.56
244 385 ANTOINE LAURENCE V1F 17 2:53:37 09:09 6.56
245 569 LHEUREUX ANTOINE V1H 79 2:54:21 09:11 6.53
246 670 STASSE JEAN-PIERRE V2H 39 2:54:46 09:13 6.51
247 696 VOS CLAIRE V2F 7 2:54:47 09:13 6.51
248 575 LOMMEL QUENTIN V1H 80 2:56:15 09:17 6.46
249 489 FAGNOUL PHILIPPE V1H 81 2:56:15 09:17 6.46
250 623 PIRAUX SERGE V2H 40 2:58:09 09:23 6.39
251 384 ANDRE ISABELLE V1F 18 2:58:21 09:24 6.38
252 699 WILMART GEOFFREY V1H 82 2:58:38 09:25 6.37
253 592 MATHONET VERONIQUE V1F 19 2:58:57 09:26 6.36
254 479 DUCAMP JEAN-POL V3H 9 2:59:42 09:28 6.33
255 577 LORENT CÉCILE V1F 20 2:59:46 09:29 6.33
256 593 MÉLON JULIEN SEH 76 3:01:37 09:34 6.27
257 460 DEMOULIN SYLVIA SEF 19 3:01:45 09:35 6.26
258 672 TANASE ARIELLE V2F 8 3:01:45 09:35 6.26
259 441 DE BAUYN VALERY SEH 77 3:01:46 09:35 6.26
260 484 DUPONT CHRISTIAN V2H 41 3:04:16 09:43 6.18
261 610 NOEL STEPHANIE SEF 20 3:54:53 12:23 4.85
262 621 PRÉGARDIEN PIERRE SEH 78 3:54:53 12:23 4.85